GW1852 Weather Reports


Display with metric or nautical units.
time (UTC)temp
F
wind
direction
speed
MPH
gust
MPH
rain 1hr
in
rain 24hr
in
rain mn
in
humidity
%
barometer
mb
20260503023051 62 32 0.0 0.0 0.00 0.00 0.00 41 1015.3
20260503021556 64 32 0.0 1.0 0.00 0.00 0.00 34 1015.3
20260503020048 64 30 2.0 2.0 0.00 0.00 0.00 34 1015.2
20260503014602 65 358 1.0 1.0 0.00 0.00 0.00 33 1015.3
20260503013051 66 358 1.0 2.0 0.00 0.00 0.00 31 1015.4
20260503011554 67 37 0.0 3.0 0.00 0.00 0.00 31 1015.4
20260503010051 66 37 1.0 3.0 0.00 0.00 0.00 31 1015.6
20260503004543 65 13 1.0 3.0 0.00 0.00 0.00 32 1015.6
20260503003053 66 356 1.0 3.0 0.00 0.00 0.00 32 1015.8
20260503001542 65 308 1.0 4.0 0.00 0.00 0.00 32 1016.0
20260503000040 65 288 3.0 6.0 0.00 0.00 0.00 38 1016.0
20260502234539 67 243 4.0 6.0 0.00 0.00 0.00 34 1016.0
20260502233039 67 262 5.0 8.0 0.00 0.00 0.00 35 1016.2
20260502231538 67 311 3.0 7.0 0.00 0.00 0.00 31 1016.5
20260502230036 67 249 3.0 6.0 0.00 0.00 0.00 34 1016.7
20260502224533 67 271 3.0 6.0 0.00 0.00 0.00 32 1016.8
20260502223034 67 245 2.0 5.0 0.00 0.00 0.00 32 1017.0
20260502221530 66 241 2.0 4.0 0.00 0.00 0.00 36 1017.3
20260502220030 66 214 2.0 6.0 0.00 0.00 0.00 35 1017.4
20260502214527 66 224 2.0 5.0 0.00 0.00 0.00 35 1017.7
20260502213037 66 235 2.0 3.0 0.00 0.00 0.00 37 1017.8
20260502211530 66 107 2.0 4.0 0.00 0.00 0.00 36 1018.0
20260502210025 64 165 3.0 8.0 0.00 0.00 0.00 38 1018.1
20260502204521 66 175 1.0 6.0 0.00 0.00 0.00 36 1018.2
20260502203021 64 128 3.0 7.0 0.00 0.00 0.00 39 1018.4
20260502201526 64 65 3.0 7.0 0.00 0.00 0.00 40 1018.5
20260502200019 64 65 6.0 17.0 0.00 0.00 0.00 38 1018.8
20260502194517 64 347 3.0 6.0 0.00 0.00 0.00 37 1018.8
20260502193018 65 149 1.0 5.0 0.00 0.00 0.00 37 1018.9
20260502191521 64 106 1.0 5.0 0.00 0.00 0.00 38 1019.0
20260502190021 65 312 12.0 17.0 0.00 0.00 0.00 37 1019.0
20260502184523 65 188 2.0 6.0 0.00 0.00 0.00 37 1019.2
20260502183011 64 251 2.0 8.0 0.00 0.00 0.00 36 1019.4
20260502181509 63 12 5.0 10.0 0.00 0.00 0.00 38 1019.5
20260502163001 61 347 4.0 9.0 0.00 0.00 0.00 41 1019.8
20260502161559 60 46 2.0 13.0 0.00 0.00 0.00 41 1020.0
20260502151601 58 75 4.0 9.0 0.00 0.00 0.00 42 1020.1
20260502123020 48 34 7.0 13.0 0.00 0.00 0.00 55 1018.5
20260502121518 48 57 5.0 12.0 0.00 0.00 0.00 55 1018.3
20260502114513 46 55 3.0 8.0 0.00 0.00 0.00 57 1018.1
20260502113011 44 352 2.0 5.0 0.00 0.00 0.00 67 1018.0
20260502111507 44 349 3.0 6.0 0.00 0.00 0.00 66 1017.7
20260502110003 45 18 3.0 6.0 0.00 0.00 0.00 65 1017.6
20260502104600 45 350 3.0 5.0 0.00 0.00 0.00 59 1017.4
20260502103101 46 340 3.0 8.0 0.00 0.00 0.00 60 1017.2
20260502101554 47 353 4.0 6.0 0.00 0.00 0.00 56 1017.0
20260502071529 46 285 0.0 0.0 0.00 0.00 0.00 58 1015.9
20260502070026 48 285 0.0 0.0 0.00 0.00 0.00 52 1015.7
20260502064538 53 326 0.0 0.0 0.00 0.00 0.00 38 1015.8
20260502063022 51 332 0.0 0.0 0.00 0.00 0.00 42 1015.7
20260502061516 51 323 0.0 0.0 0.00 0.00 0.00 41 1015.6
20260502060014 51 298 0.0 0.0 0.00 0.00 0.00 44 1015.7
20260502054512 51 300 0.0 0.0 0.00 0.00 0.00 43 1015.5
20260502053011 52 348 0.0 0.0 0.00 0.00 0.00 44 1015.4
20260502051511 54 4 0.0 0.0 0.00 0.00 0.00 38 1015.3
20260502050020 54 13 0.0 0.0 0.00 0.00 0.00 38 1015.2
20260502044510 54 28 0.0 0.0 0.00 0.00 0.00 37 1015.2
20260502043009 54 341 0.0 0.0 0.00 0.00 0.00 41 1015.2
20260502041507 57 9 0.0 0.0 0.00 0.00 0.00 31 1015.1
20260502040007 57 359 0.0 0.0 0.00 0.00 0.00 40 1015.0
20260502034507 57 359 3.0 6.0 0.00 0.00 0.00 39 1015.0
20260502033006 60 345 3.0 5.0 0.00 0.00 0.00 29 1014.8
20260502031506 62 347 1.0 5.0 0.00 0.00 0.00 27 1014.7
20260502030006 62 18 3.0 6.0 0.00 0.00 0.00 26 1014.5
20260502024605 62 11 4.0 7.0 0.00 0.00 0.00 28 1014.4